Year,Month,Day,Hour,Minute,Value (Times are PST for barometer in hPa)
2014,12,31,00,00,1034.17
2014,12,31,00,01,1034.17
2014,12,31,00,02,1034.17
2014,12,31,00,03,1034.17
2014,12,31,00,04,1034.17
2014,12,31,00,05,1034.13
2014,12,31,00,06,1034.07
2014,12,31,00,07,1034.07
2014,12,31,00,08,1034.07
2014,12,31,00,09,1034.03
2014,12,31,00,10,1034.02
2014,12,31,00,11,1033.93
2014,12,31,00,12,1033.93
2014,12,31,00,13,1033.93
2014,12,31,00,14,1033.90
2014,12,31,00,15,1033.93
2014,12,31,00,16,1033.97
2014,12,31,00,17,1033.97
2014,12,31,00,18,1033.97
2014,12,31,00,19,1033.93
2014,12,31,00,20,1033.94
2014,12,31,00,21,1033.99
2014,12,31,00,22,1033.93
2014,12,31,00,23,1034.00
2014,12,31,00,24,1034.00
2014,12,31,00,25,1034.03
2014,12,31,00,26,1034.03
2014,12,31,00,27,1034.03
2014,12,31,00,28,1034.03
2014,12,31,00,29,1034.03
2014,12,31,00,30,1034.00
2014,12,31,00,31,1034.03
2014,12,31,00,32,1033.98
2014,12,31,00,33,1034.03
2014,12,31,00,34,1033.97
2014,12,31,00,35,1033.93
2014,12,31,00,36,1033.97
2014,12,31,00,37,1033.97
2014,12,31,00,38,1033.97
2014,12,31,00,39,1033.93
2014,12,31,00,40,1033.89
2014,12,31,00,41,1033.82
2014,12,31,00,42,1033.76
2014,12,31,00,43,1033.74
2014,12,31,00,44,1033.80
2014,12,31,00,45,1033.86
2014,12,31,00,46,1033.85
2014,12,31,00,47,1033.80
2014,12,31,00,48,1033.76
2014,12,31,00,49,1033.77
2014,12,31,00,50,1033.83
2014,12,31,00,51,1033.80
2014,12,31,00,52,1033.83
2014,12,31,00,53,1033.83
2014,12,31,00,54,1033.82
2014,12,31,00,55,1033.74
2014,12,31,00,56,1033.80
2014,12,31,00,57,1033.80
2014,12,31,00,58,1033.80
2014,12,31,00,59,1033.83
2014,12,31,01,00,1033.83
2014,12,31,01,01,1033.83
2014,12,31,01,02,1033.83
2014,12,31,01,03,1033.84
2014,12,31,01,04,1033.90
2014,12,31,01,05,1033.86
2014,12,31,01,06,1033.86
2014,12,31,01,07,1033.83
2014,12,31,01,08,1033.83
2014,12,31,01,09,1033.83
2014,12,31,01,10,1033.83
2014,12,31,01,11,1033.80
2014,12,31,01,12,1033.76
2014,12,31,01,13,1033.80
2014,12,31,01,14,1033.80
2014,12,31,01,15,1033.80
2014,12,31,01,16,1033.83
2014,12,31,01,17,1033.79
2014,12,31,01,18,1033.73
2014,12,31,01,19,1033.70
2014,12,31,01,20,1033.70
2014,12,31,01,21,1033.70
2014,12,31,01,22,1033.73
2014,12,31,01,23,1033.70
2014,12,31,01,24,1033.70
2014,12,31,01,25,1033.69
2014,12,31,01,26,1033.63
2014,12,31,01,27,1033.65
2014,12,31,01,28,1033.59
2014,12,31,01,29,1033.66
2014,12,31,01,30,1033.63
2014,12,31,01,31,1033.64
2014,12,31,01,32,1033.73
2014,12,31,01,33,1033.70
2014,12,31,01,34,1033.66
2014,12,31,01,35,1033.66
2014,12,31,01,36,1033.66
2014,12,31,01,37,1033.66
2014,12,31,01,38,1033.63
2014,12,31,01,39,1033.66
2014,12,31,01,40,1033.70
2014,12,31,01,41,1033.63
2014,12,31,01,42,1033.59
2014,12,31,01,43,1033.59
2014,12,31,01,44,1033.63
2014,12,31,01,45,1033.63
2014,12,31,01,46,1033.59
2014,12,31,01,47,1033.59
2014,12,31,01,48,1033.56
2014,12,31,01,49,1033.59
2014,12,31,01,50,1033.59
2014,12,31,01,51,1033.59
2014,12,31,01,52,1033.59
2014,12,31,01,53,1033.56
2014,12,31,01,54,1033.53
2014,12,31,01,55,1033.49
2014,12,31,01,56,1033.46
2014,12,31,01,57,1033.48
2014,12,31,01,58,1033.42
2014,12,31,01,59,1033.39
2014,12,31,02,00,1033.39
2014,12,31,02,01,1033.36
2014,12,31,02,02,1033.42
2014,12,31,02,03,1033.39
2014,12,31,02,04,1033.42
2014,12,31,02,05,1033.42
2014,12,31,02,06,1033.46
2014,12,31,02,07,1033.46
2014,12,31,02,08,1033.41
2014,12,31,02,09,1033.32
2014,12,31,02,10,1033.32
2014,12,31,02,11,1033.32
2014,12,31,02,12,1033.29
2014,12,31,02,13,1033.32
2014,12,31,02,14,1033.39
2014,12,31,02,15,1033.42
2014,12,31,02,16,1033.42
2014,12,31,02,17,1033.39
2014,12,31,02,18,1033.36
2014,12,31,02,19,1033.29
2014,12,31,02,20,1033.26
2014,12,31,02,21,1033.21
2014,12,31,02,22,1033.09
2014,12,31,02,23,1033.05
2014,12,31,02,24,1033.09
2014,12,31,02,25,1033.09
2014,12,31,02,26,1033.09
2014,12,31,02,27,1033.09
2014,12,31,02,28,1033.09
2014,12,31,02,29,1033.05
2014,12,31,02,30,1033.05
2014,12,31,02,31,1033.05
2014,12,31,02,32,1033.09
2014,12,31,02,33,1033.09
2014,12,31,02,34,1033.09
2014,12,31,02,35,1033.09
2014,12,31,02,36,1033.05
2014,12,31,02,37,1033.05
2014,12,31,02,38,1033.02
2014,12,31,02,39,1033.04
2014,12,31,02,40,1032.98
2014,12,31,02,41,1032.98
2014,12,31,02,42,1032.94
2014,12,31,02,43,1032.85
2014,12,31,02,44,1032.85
2014,12,31,02,45,1032.85
2014,12,31,02,46,1032.85
2014,12,31,02,47,1032.82
2014,12,31,02,48,1032.82
2014,12,31,02,49,1032.76
2014,12,31,02,50,1032.81
2014,12,31,02,51,1032.75
2014,12,31,02,52,1032.78
2014,12,31,02,53,1032.76
2014,12,31,02,54,1032.82
2014,12,31,02,55,1032.78
2014,12,31,02,56,1032.78
2014,12,31,02,57,1032.75
2014,12,31,02,58,1032.67
2014,12,31,02,59,1032.55
2014,12,31,03,00,1032.61
2014,12,31,03,01,1032.61
2014,12,31,03,02,1032.62
2014,12,31,03,03,1032.68
2014,12,31,03,04,1032.71
2014,12,31,03,05,1032.72
2014,12,31,03,06,1032.78
2014,12,31,03,07,1032.82
2014,12,31,03,08,1032.82
2014,12,31,03,09,1032.85
2014,12,31,03,10,1032.85
2014,12,31,03,11,1032.82
2014,12,31,03,12,1032.85
2014,12,31,03,13,1032.82
2014,12,31,03,14,1032.82
2014,12,31,03,15,1032.82
2014,12,31,03,16,1032.85
2014,12,31,03,17,1032.82
2014,12,31,03,18,1032.82
2014,12,31,03,19,1032.78
2014,12,31,03,20,1032.82
2014,12,31,03,21,1032.82
2014,12,31,03,22,1032.82
2014,12,31,03,23,1032.78
2014,12,31,03,24,1032.82
2014,12,31,03,25,1032.82
2014,12,31,03,26,1032.85
2014,12,31,03,27,1032.88
2014,12,31,03,28,1032.85
2014,12,31,03,29,1032.85
2014,12,31,03,30,1032.82
2014,12,31,03,31,1032.82
2014,12,31,03,32,1032.82
2014,12,31,03,33,1032.78
2014,12,31,03,34,1032.75
2014,12,31,03,35,1032.78
2014,12,31,03,36,1032.75
2014,12,31,03,37,1032.75
2014,12,31,03,38,1032.75
2014,12,31,03,39,1032.75
2014,12,31,03,40,1032.71
2014,12,31,03,41,1032.71
2014,12,31,03,42,1032.71
2014,12,31,03,43,1032.71
2014,12,31,03,44,1032.68
2014,12,31,03,45,1032.65
2014,12,31,03,46,1032.65
2014,12,31,03,47,1032.65
2014,12,31,03,48,1032.61
2014,12,31,03,49,1032.61
2014,12,31,03,50,1032.65
2014,12,31,03,51,1032.61
2014,12,31,03,52,1032.61
2014,12,31,03,53,1032.58
2014,12,31,03,54,1032.58
2014,12,31,03,55,1032.61
2014,12,31,03,56,1032.61
2014,12,31,03,57,1032.61
2014,12,31,03,58,1032.58
2014,12,31,03,59,1032.58
2014,12,31,04,00,1032.58
2014,12,31,04,01,1032.51
2014,12,31,04,02,1032.54
2014,12,31,04,03,1032.51
2014,12,31,04,04,1032.51
2014,12,31,04,05,1032.50
2014,12,31,04,06,1032.44
2014,12,31,04,07,1032.45
2014,12,31,04,08,1032.51
2014,12,31,04,09,1032.51
2014,12,31,04,10,1032.51
2014,12,31,04,11,1032.50
2014,12,31,04,12,1032.45
2014,12,31,04,13,1032.50
2014,12,31,04,14,1032.41
2014,12,31,04,15,1032.37
2014,12,31,04,16,1032.34
2014,12,31,04,17,1032.34
2014,12,31,04,18,1032.31
2014,12,31,04,19,1032.27
2014,12,31,04,20,1032.30
2014,12,31,04,21,1032.21
2014,12,31,04,22,1032.21
2014,12,31,04,23,1032.17
2014,12,31,04,24,1032.17
2014,12,31,04,25,1032.16
2014,12,31,04,26,1032.10
2014,12,31,04,27,1032.10
2014,12,31,04,28,1032.07
2014,12,31,04,29,1032.04
2014,12,31,04,30,1032.07
2014,12,31,04,31,1032.07
2014,12,31,04,32,1032.10
2014,12,31,04,33,1032.11
2014,12,31,04,34,1032.17
2014,12,31,04,35,1032.21
2014,12,31,04,36,1032.21
2014,12,31,04,37,1032.17
2014,12,31,04,38,1032.21
2014,12,31,04,39,1032.21
2014,12,31,04,40,1032.24
2014,12,31,04,41,1032.17
2014,12,31,04,42,1032.21
2014,12,31,04,43,1032.21
2014,12,31,04,44,1032.21
2014,12,31,04,45,1032.21
2014,12,31,04,46,1032.24
2014,12,31,04,47,1032.27
2014,12,31,04,48,1032.26
2014,12,31,04,49,1032.21
2014,12,31,04,50,1032.21
2014,12,31,04,51,1032.24
2014,12,31,04,52,1032.21
2014,12,31,04,53,1032.27
2014,12,31,04,54,1032.27
2014,12,31,04,55,1032.24
2014,12,31,04,56,1032.24
2014,12,31,04,57,1032.24
2014,12,31,04,58,1032.21
2014,12,31,04,59,1032.21
2014,12,31,05,00,1032.21
2014,12,31,05,01,1032.21
2014,12,31,05,02,1032.17
2014,12,31,05,03,1032.17
2014,12,31,05,04,1032.14
2014,12,31,05,05,1032.17
2014,12,31,05,06,1032.14
2014,12,31,05,07,1032.17
2014,12,31,05,08,1032.14
2014,12,31,05,09,1032.21
2014,12,31,05,10,1032.24
2014,12,31,05,11,1032.24
2014,12,31,05,12,1032.27
2014,12,31,05,13,1032.24
2014,12,31,05,14,1032.27
2014,12,31,05,15,1032.31
2014,12,31,05,16,1032.27
2014,12,31,05,17,1032.31
2014,12,31,05,18,1032.33
2014,12,31,05,19,1032.27
2014,12,31,05,20,1032.27
2014,12,31,05,21,1032.21
2014,12,31,05,22,1032.24
2014,12,31,05,23,1032.21
2014,12,31,05,24,1032.17
2014,12,31,05,25,1032.14
2014,12,31,05,26,1032.16
2014,12,31,05,27,1032.07
2014,12,31,05,28,1032.14
2014,12,31,05,29,1032.10
2014,12,31,05,30,1032.07
2014,12,31,05,31,1032.04
2014,12,31,05,32,1031.96
2014,12,31,05,33,1031.89
2014,12,31,05,34,1031.83
2014,12,31,05,35,1031.80
2014,12,31,05,36,1031.83
2014,12,31,05,37,1031.87
2014,12,31,05,38,1031.90
2014,12,31,05,39,1031.90
2014,12,31,05,40,1031.90
2014,12,31,05,41,1031.93
2014,12,31,05,42,1031.93
2014,12,31,05,43,1031.90
2014,12,31,05,44,1031.83
2014,12,31,05,45,1031.83
2014,12,31,05,46,1031.83
2014,12,31,05,47,1031.87
2014,12,31,05,48,1031.87
2014,12,31,05,49,1031.90
2014,12,31,05,50,1031.87
2014,12,31,05,51,1031.83
2014,12,31,05,52,1031.87
2014,12,31,05,53,1031.90
2014,12,31,05,54,1031.86
2014,12,31,05,55,1031.80
2014,12,31,05,56,1031.80
2014,12,31,05,57,1031.80
2014,12,31,05,58,1031.80
2014,12,31,05,59,1031.80
2014,12,31,06,00,1031.83
2014,12,31,06,01,1031.80
2014,12,31,06,02,1031.80
2014,12,31,06,03,1031.83
2014,12,31,06,04,1031.80
2014,12,31,06,05,1031.83
2014,12,31,06,06,1031.83
2014,12,31,06,07,1031.77
2014,12,31,06,08,1031.77
2014,12,31,06,09,1031.77
2014,12,31,06,10,1031.77
2014,12,31,06,11,1031.73
2014,12,31,06,12,1031.77
2014,12,31,06,13,1031.77
2014,12,31,06,14,1031.73
2014,12,31,06,15,1031.77
2014,12,31,06,16,1031.73
2014,12,31,06,17,1031.73
2014,12,31,06,18,1031.70
2014,12,31,06,19,1031.66
2014,12,31,06,20,1031.60
2014,12,31,06,21,1031.59
2014,12,31,06,22,1031.53
2014,12,31,06,23,1031.60
2014,12,31,06,24,1031.56
2014,12,31,06,25,1031.53
2014,12,31,06,26,1031.56
2014,12,31,06,27,1031.53
2014,12,31,06,28,1031.49
2014,12,31,06,29,1031.46
2014,12,31,06,30,1031.43
2014,12,31,06,31,1031.43
2014,12,31,06,32,1031.39
2014,12,31,06,33,1031.36
2014,12,31,06,34,1031.36
2014,12,31,06,35,1031.36
2014,12,31,06,36,1031.33
2014,12,31,06,37,1031.34
2014,12,31,06,38,1031.39
2014,12,31,06,39,1031.36
2014,12,31,06,40,1031.33
2014,12,31,06,41,1031.36
2014,12,31,06,42,1031.33
2014,12,31,06,43,1031.33
2014,12,31,06,44,1031.33
2014,12,31,06,45,1031.29
2014,12,31,06,46,1031.32
2014,12,31,06,47,1031.26
2014,12,31,06,48,1031.29
2014,12,31,06,49,1031.29
2014,12,31,06,50,1031.29
2014,12,31,06,51,1031.29
2014,12,31,06,52,1031.29
2014,12,31,06,53,1031.29
2014,12,31,06,54,1031.26
2014,12,31,06,55,1031.29
2014,12,31,06,56,1031.26
2014,12,31,06,57,1031.26
2014,12,31,06,58,1031.22
2014,12,31,06,59,1031.22
2014,12,31,07,00,1031.22
2014,12,31,07,01,1031.22
2014,12,31,07,02,1031.22
2014,12,31,07,03,1031.19
2014,12,31,07,04,1031.19
2014,12,31,07,05,1031.12
2014,12,31,07,06,1031.12
2014,12,31,07,07,1031.12
2014,12,31,07,08,1031.12
2014,12,31,07,09,1031.05
2014,12,31,07,10,1031.05
2014,12,31,07,11,1031.08
2014,12,31,07,12,1031.02
2014,12,31,07,13,1031.05
2014,12,31,07,14,1031.09
2014,12,31,07,15,1031.04
2014,12,31,07,16,1030.99
2014,12,31,07,17,1030.99
2014,12,31,07,18,1030.95
2014,12,31,07,19,1030.94
2014,12,31,07,20,1030.88
2014,12,31,07,21,1030.92
2014,12,31,07,22,1030.92
2014,12,31,07,23,1030.92
2014,12,31,07,24,1030.92
2014,12,31,07,25,1030.92
2014,12,31,07,26,1030.92
2014,12,31,07,27,1030.95
2014,12,31,07,28,1030.88
2014,12,31,07,29,1030.88
2014,12,31,07,30,1030.88
2014,12,31,07,31,1030.92
2014,12,31,07,32,1030.92
2014,12,31,07,33,1030.92
2014,12,31,07,34,1030.92
2014,12,31,07,35,1030.92
2014,12,31,07,36,1030.92
2014,12,31,07,37,1030.88
2014,12,31,07,38,1030.92
2014,12,31,07,39,1030.88
2014,12,31,07,40,1030.88
2014,12,31,07,41,1030.88
2014,12,31,07,42,1030.88
2014,12,31,07,43,1030.88
2014,12,31,07,44,1030.88
2014,12,31,07,45,1030.85
2014,12,31,07,46,1030.85
2014,12,31,07,47,1030.82
2014,12,31,07,48,1030.82
2014,12,31,07,49,1030.82
2014,12,31,07,50,1030.82
2014,12,31,07,51,1030.82
2014,12,31,07,52,1030.85
2014,12,31,07,53,1030.85
2014,12,31,07,54,1030.85
2014,12,31,07,55,1030.88
2014,12,31,07,56,1030.85
2014,12,31,07,57,1030.88
2014,12,31,07,58,1030.85
2014,12,31,07,59,1030.85
2014,12,31,08,00,1030.82
2014,12,31,08,01,1030.88
2014,12,31,08,02,1030.85
2014,12,31,08,03,1030.85
2014,12,31,08,04,1030.85
2014,12,31,08,05,1030.85
2014,12,31,08,06,1030.82
2014,12,31,08,07,1030.82
2014,12,31,08,08,1030.82
2014,12,31,08,09,1030.85
2014,12,31,08,10,1030.85
2014,12,31,08,11,1030.88
2014,12,31,08,12,1030.82
2014,12,31,08,13,1030.85
2014,12,31,08,14,1030.85
2014,12,31,08,15,1030.82
2014,12,31,08,16,1030.83
2014,12,31,08,17,1030.88
2014,12,31,08,18,1030.88
2014,12,31,08,19,1030.88
2014,12,31,08,20,1030.88
2014,12,31,08,21,1030.88
2014,12,31,08,22,1030.88
2014,12,31,08,23,1030.92
2014,12,31,08,24,1030.92
2014,12,31,08,25,1030.88
2014,12,31,08,26,1030.88
2014,12,31,08,27,1030.88
2014,12,31,08,28,1030.88
2014,12,31,08,29,1030.88
2014,12,31,08,30,1030.88
2014,12,31,08,31,1030.88
2014,12,31,08,32,1030.88
2014,12,31,08,33,1030.92
2014,12,31,08,34,1030.95
2014,12,31,08,35,1030.95
2014,12,31,08,36,1030.95
2014,12,31,08,37,1030.99
2014,12,31,08,38,1030.99
2014,12,31,08,39,1031.05
2014,12,31,08,40,1031.05
2014,12,31,08,41,1031.02
2014,12,31,08,42,1031.09
2014,12,31,08,43,1031.09
2014,12,31,08,44,1031.16
2014,12,31,08,45,1031.12
2014,12,31,08,46,1031.12
2014,12,31,08,47,1031.09
2014,12,31,08,48,1031.16
2014,12,31,08,49,1031.12
2014,12,31,08,50,1031.16
2014,12,31,08,51,1031.19
2014,12,31,08,52,1031.16
2014,12,31,08,53,1031.16
2014,12,31,08,54,1031.16
2014,12,31,08,55,1031.19
2014,12,31,08,56,1031.19
2014,12,31,08,57,1031.19
2014,12,31,08,58,1031.19
2014,12,31,08,59,1031.16
2014,12,31,09,00,1031.19
2014,12,31,09,01,1031.22
2014,12,31,09,02,1031.22
2014,12,31,09,03,1031.22
2014,12,31,09,04,1031.22
2014,12,31,09,05,1031.19
2014,12,31,09,06,1031.22
2014,12,31,09,07,1031.22
2014,12,31,09,08,1031.19
2014,12,31,09,09,1031.19
2014,12,31,09,10,1031.16
2014,12,31,09,11,1031.19
2014,12,31,09,12,1031.16
2014,12,31,09,13,1031.09
2014,12,31,09,14,1031.05
2014,12,31,09,15,1031.09
2014,12,31,09,16,1031.09
2014,12,31,09,17,1031.09
2014,12,31,09,18,1031.05
2014,12,31,09,19,1031.02
2014,12,31,09,20,1031.05
2014,12,31,09,21,1031.05
2014,12,31,09,22,1031.02
2014,12,31,09,23,1030.99
2014,12,31,09,24,1030.99
2014,12,31,09,25,1030.99
2014,12,31,09,26,1030.99
2014,12,31,09,27,1030.99
2014,12,31,09,28,1030.92
2014,12,31,09,29,1030.95
2014,12,31,09,30,1030.95
2014,12,31,09,31,1030.95
2014,12,31,09,32,1030.92
2014,12,31,09,33,1030.85
2014,12,31,09,34,1030.88
2014,12,31,09,35,1030.88
2014,12,31,09,36,1030.92
2014,12,31,09,37,1030.88
2014,12,31,09,38,1030.92
2014,12,31,09,39,1030.92
2014,12,31,09,40,1030.88
2014,12,31,09,41,1030.88
2014,12,31,09,42,1030.88
2014,12,31,09,43,1030.88
2014,12,31,09,44,1030.88
2014,12,31,09,45,1030.88
2014,12,31,09,46,1030.88
2014,12,31,09,47,1030.88
2014,12,31,09,48,1030.92
2014,12,31,09,49,1030.88
2014,12,31,09,50,1030.88
2014,12,31,09,51,1030.92
2014,12,31,09,52,1030.88
2014,12,31,09,53,1030.88
2014,12,31,09,54,1030.88
2014,12,31,09,55,1030.85
2014,12,31,09,56,1030.88
2014,12,31,09,57,1030.88
2014,12,31,09,58,1030.85
2014,12,31,09,59,1030.85
2014,12,31,10,00,1030.85
2014,12,31,10,01,1030.85
2014,12,31,10,02,1030.85
2014,12,31,10,03,1030.88
2014,12,31,10,04,1030.85
2014,12,31,10,05,1030.88
2014,12,31,10,06,1030.85
2014,12,31,10,07,1030.82
2014,12,31,10,08,1030.82
2014,12,31,10,09,1030.82
2014,12,31,10,10,1030.82
2014,12,31,10,11,1030.82
2014,12,31,10,12,1030.82
2014,12,31,10,13,1030.82
2014,12,31,10,14,1030.82
2014,12,31,10,15,1030.82
2014,12,31,10,16,1030.78
2014,12,31,10,17,1030.82
2014,12,31,10,18,1030.82
2014,12,31,10,19,1030.82
2014,12,31,10,20,1030.78
2014,12,31,10,21,1030.75
2014,12,31,10,22,1030.78
2014,12,31,10,23,1030.72
2014,12,31,10,24,1030.72
2014,12,31,10,25,1030.75
2014,12,31,10,26,1030.72
2014,12,31,10,27,1030.72
2014,12,31,10,28,1030.72
2014,12,31,10,29,1030.68
2014,12,31,10,30,1030.65
2014,12,31,10,31,1030.65
2014,12,31,10,32,1030.65
2014,12,31,10,33,1030.61
2014,12,31,10,34,1030.55
2014,12,31,10,35,1030.58
2014,12,31,10,36,1030.55
2014,12,31,10,37,1030.51
2014,12,31,10,38,1030.44
2014,12,31,10,39,1030.51
2014,12,31,10,40,1030.44
2014,12,31,10,41,1030.44
2014,12,31,10,42,1030.41
2014,12,31,10,43,1030.38
2014,12,31,10,44,1030.34
2014,12,31,10,45,1030.34
2014,12,31,10,46,1030.34
2014,12,31,10,47,1030.31
2014,12,31,10,48,1030.31
2014,12,31,10,49,1030.28
2014,12,31,10,50,1030.31
2014,12,31,10,51,1030.31
2014,12,31,10,52,1030.28
2014,12,31,10,53,1030.28
2014,12,31,10,54,1030.28
2014,12,31,10,55,1030.28
2014,12,31,10,56,1030.28
2014,12,31,10,57,1030.21
2014,12,31,10,58,1030.21
2014,12,31,10,59,1030.21
2014,12,31,11,00,1030.21
2014,12,31,11,01,1030.17
2014,12,31,11,02,1030.11
2014,12,31,11,03,1030.17
2014,12,31,11,04,1030.11
2014,12,31,11,05,1030.04
2014,12,31,11,06,1030.04
2014,12,31,11,07,1030.04
2014,12,31,11,08,1030.00
2014,12,31,11,09,1030.04
2014,12,31,11,10,1030.00
2014,12,31,11,11,1030.00
2014,12,31,11,12,1029.97
2014,12,31,11,13,1029.97
2014,12,31,11,14,1029.94
2014,12,31,11,15,1029.94
2014,12,31,11,16,1029.94
2014,12,31,11,17,1029.87
2014,12,31,11,18,1029.87
2014,12,31,11,19,1029.87
2014,12,31,11,20,1029.87
2014,12,31,11,21,1029.87
2014,12,31,11,22,1029.87
2014,12,31,11,23,1029.90
2014,12,31,11,24,1029.87
2014,12,31,11,25,1029.87
2014,12,31,11,26,1029.87
2014,12,31,11,27,1029.80
2014,12,31,11,28,1029.80
2014,12,31,11,29,1029.80
2014,12,31,11,30,1029.77
2014,12,31,11,31,1029.77
2014,12,31,11,32,1029.77
2014,12,31,11,33,1029.70
2014,12,31,11,34,1029.73
2014,12,31,11,35,1029.70
2014,12,31,11,36,1029.70
2014,12,31,11,37,1029.63
2014,12,31,11,38,1029.67
2014,12,31,11,39,1029.73
2014,12,31,11,40,1029.63
2014,12,31,11,41,1029.67
2014,12,31,11,42,1029.63
2014,12,31,11,43,1029.63
2014,12,31,11,44,1029.63
2014,12,31,11,45,1029.63
2014,12,31,11,46,1029.63
2014,12,31,11,47,1029.60
2014,12,31,11,48,1029.60
2014,12,31,11,49,1029.60
2014,12,31,11,50,1029.60
2014,12,31,11,51,1029.56
2014,12,31,11,52,1029.60
2014,12,31,11,53,1029.60
2014,12,31,11,54,1029.53
2014,12,31,11,55,1029.53
2014,12,31,11,56,1029.50
2014,12,31,11,57,1029.56
2014,12,31,11,58,1029.46
2014,12,31,11,59,1029.46
2014,12,31,12,00,1029.43
2014,12,31,12,01,1029.39
2014,12,31,12,02,1029.46
2014,12,31,12,03,1029.43
2014,12,31,12,04,1029.43
2014,12,31,12,05,1029.43
2014,12,31,12,06,1029.36
2014,12,31,12,07,1029.36
2014,12,31,12,08,1029.36
2014,12,31,12,09,1029.33
2014,12,31,12,10,1029.26
2014,12,31,12,11,1029.23
2014,12,31,12,12,1029.23
2014,12,31,12,13,1029.23
2014,12,31,12,14,1029.22
2014,12,31,12,15,1029.12
2014,12,31,12,16,1029.12
2014,12,31,12,17,1029.12
2014,12,31,12,18,1029.09
2014,12,31,12,19,1029.09
2014,12,31,12,20,1029.09
2014,12,31,12,21,1029.09
2014,12,31,12,22,1029.09
2014,12,31,12,23,1029.06
2014,12,31,12,24,1029.09
2014,12,31,12,25,1029.06
2014,12,31,12,26,1029.06
2014,12,31,12,27,1028.92
2014,12,31,12,28,1028.92
2014,12,31,12,29,1028.92
2014,12,31,12,30,1028.89
2014,12,31,12,31,1028.82
2014,12,31,12,32,1028.85
2014,12,31,12,33,1028.82
2014,12,31,12,34,1028.79
2014,12,31,12,35,1028.75
2014,12,31,12,36,1028.72
2014,12,31,12,37,1028.72
2014,12,31,12,38,1028.68
2014,12,31,12,39,1028.68
2014,12,31,12,40,1028.65
2014,12,31,12,41,1028.62
2014,12,31,12,42,1028.58
2014,12,31,12,43,1028.55
2014,12,31,12,44,1028.55
2014,12,31,12,45,1028.55
2014,12,31,12,46,1028.51
2014,12,31,12,47,1028.48
2014,12,31,12,48,1028.51
2014,12,31,12,49,1028.45
2014,12,31,12,50,1028.45
2014,12,31,12,51,1028.41
2014,12,31,12,52,1028.45
2014,12,31,12,53,1028.38
2014,12,31,12,54,1028.41
2014,12,31,12,55,1028.41
2014,12,31,12,56,1028.41
2014,12,31,12,57,1028.38
2014,12,31,12,58,1028.35
2014,12,31,12,59,1028.31
2014,12,31,13,00,1028.31
2014,12,31,13,01,1028.31
2014,12,31,13,02,1028.31
2014,12,31,13,03,1028.24
2014,12,31,13,04,1028.24
2014,12,31,13,05,1028.24
2014,12,31,13,06,1028.21
2014,12,31,13,07,1028.24
2014,12,31,13,08,1028.14
2014,12,31,13,09,1028.07
2014,12,31,13,10,1028.14
2014,12,31,13,11,1028.11
2014,12,31,13,12,1028.04
2014,12,31,13,13,1028.01
2014,12,31,13,14,1028.04
2014,12,31,13,15,1028.01
2014,12,31,13,16,1028.01
2014,12,31,13,17,1028.01
2014,12,31,13,18,1027.97
2014,12,31,13,19,1027.97
2014,12,31,13,20,1027.94
2014,12,31,13,21,1027.94
2014,12,31,13,22,1027.94
2014,12,31,13,23,1027.90
2014,12,31,13,24,1027.87
2014,12,31,13,25,1027.84
2014,12,31,13,26,1027.77
2014,12,31,13,27,1027.80
2014,12,31,13,28,1027.80
2014,12,31,13,29,1027.80
2014,12,31,13,30,1027.80
2014,12,31,13,31,1027.77
2014,12,31,13,32,1027.80
2014,12,31,13,33,1027.80
2014,12,31,13,34,1027.80
2014,12,31,13,35,1027.77
2014,12,31,13,36,1027.84
2014,12,31,13,37,1027.84
2014,12,31,13,38,1027.84
2014,12,31,13,39,1027.80
2014,12,31,13,40,1027.80
2014,12,31,13,41,1027.80
2014,12,31,13,42,1027.77
2014,12,31,13,43,1027.80
2014,12,31,13,44,1027.77
2014,12,31,13,45,1027.77
2014,12,31,13,46,1027.77
2014,12,31,13,47,1027.74
2014,12,31,13,48,1027.70
2014,12,31,13,49,1027.70
2014,12,31,13,50,1027.70
2014,12,31,13,51,1027.70
2014,12,31,13,52,1027.67
2014,12,31,13,53,1027.70
2014,12,31,13,54,1027.70
2014,12,31,13,55,1027.67
2014,12,31,13,56,1027.63
2014,12,31,13,57,1027.63
2014,12,31,13,58,1027.63
2014,12,31,13,59,1027.60
2014,12,31,14,00,1027.57
2014,12,31,14,01,1027.63
2014,12,31,14,02,1027.60
2014,12,31,14,03,1027.63
2014,12,31,14,04,1027.57
2014,12,31,14,05,1027.53
2014,12,31,14,06,1027.50
2014,12,31,14,07,1027.50
2014,12,31,14,08,1027.50
2014,12,31,14,09,1027.50
2014,12,31,14,10,1027.40
2014,12,31,14,11,1027.40
2014,12,31,14,12,1027.40
2014,12,31,14,13,1027.36
2014,12,31,14,14,1027.36
2014,12,31,14,15,1027.36
2014,12,31,14,16,1027.36
2014,12,31,14,17,1027.36
2014,12,31,14,18,1027.33
2014,12,31,14,19,1027.33
2014,12,31,14,20,1027.33
2014,12,31,14,21,1027.33
2014,12,31,14,22,1027.40
2014,12,31,14,23,1027.33
2014,12,31,14,24,1027.33
2014,12,31,14,25,1027.36
2014,12,31,14,26,1027.36
2014,12,31,14,27,1027.36
2014,12,31,14,28,1027.36
2014,12,31,14,29,1027.36
2014,12,31,14,30,1027.33
2014,12,31,14,31,1027.30
2014,12,31,14,32,1027.33
2014,12,31,14,33,1027.33
2014,12,31,14,34,1027.33
2014,12,31,14,35,1027.30
2014,12,31,14,36,1027.26
2014,12,31,14,37,1027.30
2014,12,31,14,38,1027.33
2014,12,31,14,39,1027.33
2014,12,31,14,40,1027.26
2014,12,31,14,41,1027.33
2014,12,31,14,42,1027.26
2014,12,31,14,43,1027.33
2014,12,31,14,44,1027.30
2014,12,31,14,45,1027.30
2014,12,31,14,46,1027.30
2014,12,31,14,47,1027.30
2014,12,31,14,48,1027.30
2014,12,31,14,49,1027.23
2014,12,31,14,50,1027.26
2014,12,31,14,51,1027.23
2014,12,31,14,52,1027.23
2014,12,31,14,53,1027.23
2014,12,31,14,54,1027.16
2014,12,31,14,55,1027.19
2014,12,31,14,56,1027.19
2014,12,31,14,57,1027.19
2014,12,31,14,58,1027.23
2014,12,31,14,59,1027.19
2014,12,31,15,00,1027.19
2014,12,31,15,01,1027.19
2014,12,31,15,02,1027.19
2014,12,31,15,03,1027.16
2014,12,31,15,04,1027.16
2014,12,31,15,05,1027.19
2014,12,31,15,06,1027.19
2014,12,31,15,07,1027.16
2014,12,31,15,08,1027.23
2014,12,31,15,09,1027.26
2014,12,31,15,10,1027.26
2014,12,31,15,11,1027.23
2014,12,31,15,12,1027.19
2014,12,31,15,13,1027.19
2014,12,31,15,14,1027.19
2014,12,31,15,15,1027.19
2014,12,31,15,16,1027.19
2014,12,31,15,17,1027.13
2014,12,31,15,18,1027.13
2014,12,31,15,19,1027.09
2014,12,31,15,20,1027.09
2014,12,31,15,21,1027.09
2014,12,31,15,22,1027.09
2014,12,31,15,23,1027.02
2014,12,31,15,24,1027.02
2014,12,31,15,25,1027.09
2014,12,31,15,26,1027.09
2014,12,31,15,27,1027.09
2014,12,31,15,28,1027.06
2014,12,31,15,29,1027.09
2014,12,31,15,30,1027.09
2014,12,31,15,31,1027.06
2014,12,31,15,32,1027.06
2014,12,31,15,33,1027.02
2014,12,31,15,34,1027.02
2014,12,31,15,35,1027.02
2014,12,31,15,36,1027.02
2014,12,31,15,37,1027.02
2014,12,31,15,38,1026.99
2014,12,31,15,39,1027.02
2014,12,31,15,40,1027.02
2014,12,31,15,41,1027.02
2014,12,31,15,42,1027.06
2014,12,31,15,43,1027.06
2014,12,31,15,44,1027.02
2014,12,31,15,45,1027.09
2014,12,31,15,46,1027.02
2014,12,31,15,47,1027.02
2014,12,31,15,48,1027.02
2014,12,31,15,49,1027.02
2014,12,31,15,50,1027.02
2014,12,31,15,51,1026.99
2014,12,31,15,52,1027.02
2014,12,31,15,53,1026.99
2014,12,31,15,54,1026.99
2014,12,31,15,55,1027.06
2014,12,31,15,56,1026.99